TimeEDT,TemperatureF,Dew PointF,Humidity,Sea Level PressureIn,VisibilityMPH,Wind Direction,Wind SpeedMPH,Gust SpeedMPH,PrecipitationIn,Events,Conditions,WindDirDegrees,DateUTC
12:15 AM,63.5,56.3,77,29.86,10.0,WNW,3.5,-,N/A,,Overcast,290,2013-07-21 04:15:00
12:35 AM,63.5,56.7,78,29.88,10.0,Calm,Calm,-,N/A,,Overcast,0,2013-07-21 04:35:00
12:55 AM,63.9,56.1,76,29.88,10.0,Calm,Calm,-,N/A,Rain,Light Rain,0,2013-07-21 04:55:00
1:15 AM,63.5,57.2,80,29.89,10.0,Calm,Calm,-,N/A,,Overcast,0,2013-07-21 05:15:00
1:35 AM,62.4,57.0,82,29.90,10.0,Calm,Calm,-,N/A,,Overcast,0,2013-07-21 05:35:00
1:55 AM,61.9,56.7,83,29.91,10.0,Calm,Calm,-,N/A,,Overcast,0,2013-07-21 05:55:00
2:15 AM,61.7,55.2,79,29.90,10.0,East,4.6,-,N/A,,Scattered Clouds,80,2013-07-21 06:15:00
2:35 AM,61.2,55.9,83,29.91,10.0,Calm,Calm,-,N/A,,Mostly Cloudy,0,2013-07-21 06:35:00
2:55 AM,59.9,55.6,86,29.91,10.0,Calm,Calm,-,N/A,,Mostly Cloudy,0,2013-07-21 06:55:00
3:15 AM,59.4,54.5,84,29.91,10.0,Calm,Calm,-,N/A,,Scattered Clouds,0,2013-07-21 07:15:00
3:35 AM,58.8,54.3,85,29.93,10.0,Calm,Calm,-,N/A,,Scattered Clouds,0,2013-07-21 07:35:00
3:55 AM,59.2,54.9,86,29.93,10.0,Calm,Calm,-,N/A,,Scattered Clouds,0,2013-07-21 07:55:00
4:15 AM,59.4,53.6,81,29.94,10.0,Calm,Calm,-,N/A,,Scattered Clouds,0,2013-07-21 08:15:00
4:35 AM,58.8,52.9,81,29.94,10.0,Calm,Calm,-,N/A,,Clear,0,2013-07-21 08:35:00
4:55 AM,58.1,52.3,81,29.95,10.0,Calm,Calm,-,N/A,,Mostly Cloudy,0,2013-07-21 08:55:00
5:15 AM,57.6,51.8,81,29.95,10.0,Calm,Calm,-,N/A,,Scattered Clouds,0,2013-07-21 09:15:00
5:35 AM,57.2,50.9,79,29.96,10.0,NNW,3.5,-,N/A,,Scattered Clouds,330,2013-07-21 09:35:00
5:55 AM,57.2,50.2,77,29.97,10.0,Calm,Calm,-,N/A,,Clear,0,2013-07-21 09:55:00
6:15 AM,56.5,50.4,80,29.97,10.0,Calm,Calm,-,N/A,,Clear,0,2013-07-21 10:15:00
6:35 AM,57.2,51.1,80,29.97,10.0,Calm,Calm,-,N/A,,Scattered Clouds,0,2013-07-21 10:35:00
6:55 AM,58.1,49.8,74,29.98,10.0,North,4.6,-,N/A,,Clear,10,2013-07-21 10:55:00
7:15 AM,59.0,48.4,68,29.99,10.0,NNE,3.5,-,N/A,,Clear,20,2013-07-21 11:15:00
7:35 AM,58.8,50.0,73,30.00,10.0,West,3.5,-,N/A,,Scattered Clouds,270,2013-07-21 11:35:00
7:55 AM,60.8,48.4,64,30.00,10.0,North,4.6,-,N/A,,Mostly Cloudy,10,2013-07-21 11:55:00
8:15 AM,61.7,48.2,61,30.01,10.0,North,3.5,-,N/A,,Overcast,360,2013-07-21 12:15:00
8:35 AM,61.9,49.3,63,30.01,10.0,North,4.6,-,N/A,,Overcast,10,2013-07-21 12:35:00
8:55 AM,63.5,48.7,59,30.01,10.0,NNW,4.6,-,N/A,,Overcast,330,2013-07-21 12:55:00
9:15 AM,61.7,49.1,63,30.02,10.0,West,3.5,-,N/A,,Overcast,280,2013-07-21 13:15:00
9:35 AM,63.3,50.2,62,30.01,10.0,West,5.8,-,N/A,,Overcast,280,2013-07-21 13:35:00
9:55 AM,65.1,51.1,60,30.02,10.0,NW,3.5,-,N/A,,Overcast,310,2013-07-21 13:55:00
10:15 AM,65.8,51.1,59,30.02,10.0,WSW,3.5,-,N/A,,Mostly Cloudy,240,2013-07-21 14:15:00
10:35 AM,67.3,51.4,57,30.02,10.0,Calm,Calm,-,N/A,,Clear,0,2013-07-21 14:35:00
10:55 AM,69.1,50.7,52,30.02,10.0,WSW,4.6,-,N/A,,Clear,240,2013-07-21 14:55:00
11:15 AM,70.5,51.8,51,30.02,10.0,West,5.8,-,N/A,,Clear,280,2013-07-21 15:15:00
11:35 AM,70.5,50.0,48,30.02,10.0,WNW,6.9,-,N/A,,Scattered Clouds,290,2013-07-21 15:35:00
11:55 AM,71.6,50.7,48,30.02,10.0,WSW,4.6,-,N/A,,Scattered Clouds,250,2013-07-21 15:55:00
12:15 PM,71.2,50.9,49,30.02,10.0,West,6.9,-,N/A,,Clear,270,2013-07-21 16:15:00
12:35 PM,70.7,48.7,46,30.02,10.0,NNE,5.8,-,N/A,,Clear,30,2013-07-21 16:35:00
12:55 PM,70.3,49.5,47,30.02,10.0,NNE,5.8,-,N/A,,Mostly Cloudy,20,2013-07-21 16:55:00
1:15 PM,70.3,51.4,51,30.02,10.0,NNE,4.6,-,N/A,,Mostly Cloudy,20,2013-07-21 17:15:00
2:15 PM,70.9,51.4,50,30.02,10.0,NNE,5.8,-,N/A,,Overcast,20,2013-07-21 18:15:00
2:35 PM,73.2,52.7,48,30.02,10.0,NNE,3.5,-,N/A,,Mostly Cloudy,30,2013-07-21 18:35:00
2:55 PM,73.8,53.8,50,30.02,10.0,West,4.6,-,N/A,,Scattered Clouds,270,2013-07-21 18:55:00
3:15 PM,73.9,49.6,42,30.02,10.0,NW,3.5,-,N/A,,Scattered Clouds,320,2013-07-21 19:15:00
3:35 PM,72.9,51.1,46,30.02,10.0,Calm,Calm,-,N/A,,Clear,0,2013-07-21 19:35:00
3:55 PM,73.8,52.0,46,30.01,10.0,North,4.6,-,N/A,,Clear,350,2013-07-21 19:55:00
4:15 PM,72.7,50.9,46,30.01,10.0,WNW,5.8,-,N/A,,Clear,290,2013-07-21 20:15:00
4:35 PM,72.1,50.9,47,30.01,10.0,North,3.5,-,N/A,,Mostly Cloudy,360,2013-07-21 20:35:00
4:55 PM,73.9,50.2,43,30.01,10.0,WNW,4.6,-,N/A,,Scattered Clouds,290,2013-07-21 20:55:00
5:15 PM,73.8,50.2,43,30.01,10.0,NW,6.9,-,N/A,,Scattered Clouds,320,2013-07-21 21:15:00
5:35 PM,73.4,50.7,45,30.00,10.0,NNW,3.5,-,N/A,,Scattered Clouds,330,2013-07-21 21:35:00
5:55 PM,72.5,49.8,45,30.00,10.0,North,8.1,-,N/A,,Scattered Clouds,360,2013-07-21 21:55:00
6:15 PM,72.5,49.6,44,30.00,10.0,NW,6.9,-,N/A,,Clear,310,2013-07-21 22:15:00
6:35 PM,71.2,48.7,45,30.01,10.0,North,6.9,-,N/A,,Clear,350,2013-07-21 22:35:00
6:55 PM,70.7,49.6,47,30.01,10.0,NNW,4.6,-,N/A,,Clear,340,2013-07-21 22:55:00
7:15 PM,70.2,48.9,47,30.01,10.0,North,5.8,-,N/A,,Clear,350,2013-07-21 23:15:00
7:35 PM,68.9,48.7,49,30.01,10.0,North,4.6,-,N/A,,Clear,350,2013-07-21 23:35:00
7:55 PM,67.6,48.4,50,30.02,10.0,NNW,4.6,-,N/A,,Clear,340,2013-07-21 23:55:00
8:15 PM,66.7,48.2,51,30.02,10.0,North,6.9,-,N/A,,Clear,350,2013-07-22 00:15:00
8:35 PM,65.5,47.5,52,30.02,10.0,NNW,5.8,-,N/A,,Clear,340,2013-07-22 00:35:00
8:55 PM,63.1,49.1,60,30.03,10.0,Calm,Calm,-,N/A,,Clear,0,2013-07-22 00:55:00
9:15 PM,63.5,47.8,57,30.05,10.0,Calm,Calm,-,N/A,,Clear,0,2013-07-22 01:15:00
9:35 PM,61.5,49.3,64,30.05,10.0,Calm,Calm,-,N/A,,Clear,0,2013-07-22 01:35:00
9:55 PM,61.9,47.8,60,30.05,10.0,Calm,Calm,-,N/A,,Clear,0,2013-07-22 01:55:00
10:15 PM,60.8,48.2,63,30.06,10.0,Calm,Calm,-,N/A,,Clear,0,2013-07-22 02:15:00
10:35 PM,62.4,46.8,57,30.06,10.0,North,3.5,-,N/A,,Clear,350,2013-07-22 02:35:00
10:55 PM,59.0,47.7,66,30.07,10.0,Calm,Calm,-,N/A,,Clear,0,2013-07-22 02:55:00
11:15 PM,60.6,46.8,60,30.06,10.0,Calm,Calm,-,N/A,,Clear,0,2013-07-22 03:15:00
11:35 PM,59.5,47.3,64,30.07,10.0,NW,3.5,-,N/A,,Clear,310,2013-07-22 03:35:00
11:55 PM,58.1,47.5,68,30.08,10.0,Calm,Calm,-,N/A,,Clear,0,2013-07-22 03:55:00